Skip Page Navigation
NASA JPL Caltech
NASA Logo - Jet Propulsion Laboratory + View the NASA Portal
+ Center for Near-Earth Object Studies
JPL Home Earth Solar System Stars & Galaxies Technology
JPL Solar System Dynamics
BODIES ORBITS EPHEMERIDES TOOLS PHYSICAL DATA DISCOVERY FAQ SITE MAP
IMPORTANT: The SSD Announcement email list is now available. Major changes are coming in the near future, including possible hostname and/or URL changes. To be notified of such changes, subscribe to this email list.

Please visit this page for more details.


JPL Small-Body Database Browser
Search: [ help ]  
351267 (2004 RT192)
Classification: Main-belt Asteroid          SPK-ID: 2351267
Ephemeris | Orbit Diagram | Orbital Elements | Mission Design | Physical Parameters | Discovery Circumstances | Close-Approach Data ]

[ show orbit diagram ]
Orbital Elements at Epoch 2458600.5 (2019-Apr-27.0) TDB
Reference: JPL 12 (heliocentric ecliptic J2000)
 Element Value Uncertainty (1-sigma)   Units 
e .2289618199234865 6.396e-08  
a 2.404851392323758 1.298e-08 au
q 1.85423224089178 1.5346e-07 au
i 4.093587513657272 7.1685e-06 deg
node 307.7257332599671 7.8869e-05 deg
peri 46.45117471264232 8.0533e-05 deg
M 335.5201865093282 1.2853e-05 deg
tp 2458693.126743822526
(2019-Jul-28.62674382)
4.8766e-05 TDB
period 1362.16837553995
3.73
1.1028e-05
3.019e-08
d
yr
n .2642845087761633 2.1397e-09 deg/d
Q 2.955470543755736 1.5952e-08 au
  Orbit Determination Parameters
   # obs. used (total)      302  
   data-arc span      5559 days (15.22 yr)  
   first obs. used      2004-08-11  
   last obs. used      2019-10-31  
   planetary ephem.      DE431  
   SB-pert. ephem.      SB431-N16  
   condition code      0  
   norm. resid. RMS      .49409  
   source      ORB  
   producer      Otto Matic  
   solution date      2019-Nov-08 10:47:04  

Additional Information
 Earth MOID = .851033 au 
 Jupiter MOID = 2.49398 au 
 T_jup = 3.484 
[ show covariance matrix ]

Ephemeris | Orbit Diagram | Orbital Elements | Mission Design | Physical Parameters | Discovery Circumstances | Close-Approach Data ]

Physical Parameter Table
Parameter Symbol Value Units Sigma Reference Notes
absolute magnitude H 17.1   n/a MPO446572  

351267 (2004 RT192)          Discovered 2004-Sep-10 by LINEAR at Socorro
Reference: 20130127/Numbers.arcLast Updated: 2013-01-31

[ show close-approach data ]
Ephemeris | Orbit Diagram | Orbital Elements | Mission Design | Physical Parameters | Discovery Circumstances | Close-Approach Data ]
ABOUT SSD CREDITS/AWARDS PRIVACY/COPYRIGHT GLOSSARY LINKS
FirstGov
(server date/time)  
NASA Home Page
Site Manager:   Ryan S. Park
Webmaster  Alan B. Chamberlin